This is the latest recevied weather packets stored in our database for station/object K3BAY-1. If no packets are shown the sender has not sent any weather packets the latest 10 day(s).
| Time | Temp. | Humidity | Pressure | Rain* | Wind** | Luminosity | Snow |
|---|---|---|---|---|---|---|---|
| 1777916405 | 22.78° C | 38% | 1014.6 hPa | 0 mm | - | 749 W/m² | - |
| 1777916102 | 23.33° C | 38% | 1014.6 hPa | 0 mm | - | 753 W/m² | - |
| 1777915800 | 24.44° C | 35% | 1014.6 hPa | 0 mm | - | 754 W/m² | - |
| 1777915495 | 25° C | 31% | 1014.9 hPa | 0 mm | - | 765 W/m² | - |
| 1777915192 | 25.56° C | 33% | 1014.6 hPa | 0 mm | - | 769 W/m² | - |
| 1777914889 | 25.56° C | 32% | 1014.6 hPa | 0 mm | - | 750 W/m² | - |
| 1777914586 | 25° C | 33% | 1014.6 hPa | 0 mm | - | 767 W/m² | - |
| 1777914282 | 23.89° C | 36% | 1014.6 hPa | 0 mm | - | 755 W/m² | - |
| 1777913979 | 24.44° C | 33% | 1014.6 hPa | 0 mm | - | 746 W/m² | - |
| 1777913675 | 24.44° C | 37% | 1014.6 hPa | 0 mm | - | 733 W/m² | - |
| 1777913373 | 23.89° C | 31% | 1014.2 hPa | 0 mm | - | 611 W/m² | - |
| 1777913069 | 23.89° C | 32% | 1014.6 hPa | 0 mm | - | 739 W/m² | - |
| 1777912765 | 24.44° C | 35% | 1014.2 hPa | 0 mm | - | 88 W/m² | - |
| 1777912461 | 24.44° C | 34% | 1014.6 hPa | 0 mm | - | 69 W/m² | - |
| 1777912158 | 23.33° C | 33% | 1014.6 hPa | 0 mm | - | 715 W/m² | - |
| 1777911854 | 23.89° C | 31% | 1014.6 hPa | 0 mm | - | 85 W/m² | - |
| 1777911551 | 23.33° C | 34% | 1014.2 hPa | 0 mm | - | 717 W/m² | - |
| 1777911247 | 23.33° C | 35% | 1014.9 hPa | 0 mm | - | 284 W/m² | - |
| 1777910944 | 22.22° C | 34% | 1014.2 hPa | 0 mm | - | 57 W/m² | - |
| 1777910642 | 23.33° C | 32% | 1014.2 hPa | 0 mm | - | 55 W/m² | - |
| 1777910338 | 22.22° C | 34% | 1014.6 hPa | 0 mm | - | 54 W/m² | - |
| 1777910035 | 22.78° C | 34% | 1014.6 hPa | 0 mm | - | 53 W/m² | - |
| 1777909732 | 22.22° C | 35% | 1014.6 hPa | 0 mm | - | 52 W/m² | - |
| 1777909429 | 23.33° C | 35% | 1014.6 hPa | 0 mm | - | 51 W/m² | - |
| 1777909127 | 22.78° C | 33% | 1014.6 hPa | 0 mm | - | 52 W/m² | - |
* Rain latest hour (hover to see other rain measurements)
** Current wind speed in m/s (hover to see current wind gust speed)